Regional Weather Roundup
Issued by NWS Sterling, VA

Home | Current Version | Previous Version | Graphics & Text | Print | Product List | Glossary On
Versions: 1 2 3 4 5 6 7 8 9 10 11 12 13 14 15 16 17 18 19 20 21 22 23 24 25 26 27
000
ASUS41 KLWX 201111
RWRLWX

REGIONAL WEATHER ROUNDUP
NATIONAL WEATHER SERVICE BALTIMORE MD/WASHINGTON DC
700 AM EDT SUN MAY 20 2018

Note: "FAIR" indicates few or no clouds below 12,000 feet
with no significant weather and/or obstructions to visibility.
 TC=TEMPERATURE CELSIUS

 * =Non NWS site. Station does not report precipitation (e.g. rain,
    snow, etc.), thunder, or fog.

DCZ001-MDZ009-015-VAZ040>042-051-053>054-201200-
WASHINGTON METRO

CITY           SKY/WX    TMP DP  RH WIND       PRES   REMARKS
WASHINGTON NAT CLOUDY    71  67  87 SW6       30.03R
DULLES         PTSUNNY   69  69 100 SW7       30.03R
ANDREWS AFB    PTSUNNY   71  68  90 SW9       30.03R
FT BELVOIR     CLOUDY    71  68  90 S3        30.03R
QUANTICO       CLOUDY    73  70  90 SW8       30.04R
COLLEGE PARK*  CLOUDY    70  67  91 CALM      30.02R
LEESBURG*      PTSUNNY   63  63 100 CALM      30.03S
MANASSAS*      CLOUDY    71  69  93 SW5       30.04R
GAITHERSBURG*  CLOUDY    69  68  96 SW6       30.04R

$$

MDZ006>007-011-014-201200-
BALTIMORE METRO

CITY           SKY/WX    TMP DP  RH WIND       PRES   REMARKS
BWI AIRPORT    PTSUNNY   70  69  97 SW5       30.01R
MD SCIENCE CTR   N/A     69  69 100 MISG      30.01R
MARTIN STATE   CLOUDY    70  70 100 S3        30.02R
ANNAPOLIS      CLOUDY    72  68  87 S5        30.02R
FORT MEADE*    CLOUDY    68  66  94 SW5       30.04R

$$

MDZ012-015-019>023-201200-
MARYLAND EASTERN SHORE

CITY           SKY/WX    TMP DP  RH WIND       PRES   REMARKS
OCEAN CITY     PTSUNNY   69  68  96 SW9       30.07S
SALISBURY      PTSUNNY   72  70  93 SW10      30.05S
BAY BRIDGE AP* CLOUDY    70  68  94 S9G16     30.02R
CAMBRIDGE*     CLOUDY    72  68  88 S8G15     30.04R
EASTON*        PTSUNNY   72  68  88 SW13G18   30.06R

$$

MDZ017>025-201200-
SOUTHERN MARYLAND

CITY           SKY/WX    TMP DP  RH WIND       PRES   REMARKS
PATUXENT RIVER FAIR     N/A N/A N/A SW13      30.04R
ST INIGOES     NOT AVBL
LEONARDTOWN*   CLOUDY    70  66  88 SW10      30.06R

$$

MDZ003>005-201200-
NORTH CENTRAL MARYLAND

CITY           SKY/WX    TMP DP  RH WIND       PRES   REMARKS
FREDERICK*     CLOUDY    70  70 100 S6        30.05R
HAGERSTOWN APT FOG       62  61  96 CALM      30.01R VSB<1/4
WESTMINSTER*   CLOUDY    70  70 100 SW9G16    30.02R

$$

MDZ501>502-201200-
WESTERN MARYLAND

CITY           SKY/WX    TMP DP  RH WIND       PRES   REMARKS
OAKLAND*       CLOUDY    59  59 100 W8        30.10R
CUMBERLAND*    CLOUDY    59  59 100 CALM      30.08R VSB 1/4

$$

VAZ025>031-201200-
SHENANDOAH VALLEY

CITY           SKY/WX    TMP DP  RH WIND       PRES   REMARKS
WINCHESTER*    CLOUDY    64  64 100 SW6       30.04R
FRONT ROYAL*   CLOUDY   N/A N/A N/A S6        30.03R
LURAY*         FAIR      64  64 100 CALM      30.06R
NEW MARKET*    FAIR     N/A N/A N/A SW6       30.04R
STAUNTON*      FAIR      66  64  94 S5        30.10R
WAYNESBORO*    FAIR      67  65  94 SW5       30.10R

$$

WVZ021-048>050-054>055-201200-
EASTERN WEST VIRGINIA PANHANDLE

CITY           SKY/WX    TMP DP  RH WIND       PRES   REMARKS
MARTINSBURG    CLOUDY    59  59 100 CALM      30.01S FOG
PETERSBURG*    CLOUDY    60  60  99 CALM      30.05R FOG

$$

VAZ036>039-050-201200-
CENTRAL FOOTHILLS

CITY           SKY/WX    TMP DP  RH WIND       PRES   REMARKS
CHARLOTTESVILL FAIR      69  68  96 S5        30.06R FOG
CULPEPER*      PTSUNNY   70  68  92 S5        30.05R
ORANGE*        CLOUDY    70  68  94 SW10      30.05R
GORDONSVILLE*  CLOUDY    69  69 100 SW8       30.05R
WARRENTON*     CLOUDY    71  67  88 CALM      30.03R

$$

VAZ055>057-201200-
NORTH AND CENTRAL PIEDMONT

CITY           SKY/WX    TMP DP  RH WIND       PRES   REMARKS
FREDERICKSBRG* CLOUDY    72  72 100 SW8       30.04R
STAFFORD*      CLOUDY    72  72 100 SW6       30.08R

$$

NCZ024-NYZ072-PAZ021-071-VAZ022-071-201200-
OTHER REGIONAL OBSERVATIONS

CITY           SKY/WX    TMP DP  RH WIND       PRES   REMARKS
NEW YORK CITY  CLOUDY    67  66  97 VRB6      29.99S FOG
PHILADELPHIA   CLOUDY    70  67  90 SW12      29.99R
PITTSBURGH     CLOUDY    66  65  96 W6        30.02R
ROANOKE        FAIR      67  64  90 W6        30.13R
RICHMOND       PTSUNNY   71  68  90 S13       30.08R
RALEIGH        MOCLDY    70  69  97 SW8       30.14R

$$

ANZ530>537-201200-
MARINE OBSERVATIONS

STATION/POSITION TIME  TEMP    WIND        PRES
                       AIR SEA DIR/SP/G
                 (UTC) (F)     (DEG/KT/KT) (MB)
THOMAS PT LIGHT  1100   68 64  190/ 15/ 15 1017.4R
BALT KEY BRIDGE  1048   71     210/  5/  6 1016.1R
COVE POINT       1048   71     230/ 13/ 17 1017.7R
LEWISETTA        1048   72 69  220/ 13/ 17 1017.4R
SOLOMONS ISLAND  1048   71 67  230/ 14/ 17 1017.1R
PINEY POINT      1036          230/ 17/ 20   N/A

$$





USA.gov is the U.S. government's official web portal to all federal, state and local government web resources and services.